星链-6378 (STARLINK-6378 )

导读

STARLINK-6378是美国太空探索技术公司Starlink星链互联网卫星星座的一员,于2023年7月16日发射入轨。星链项目旨在构建全球卫星互联网通信网络,为偏远、基础设施薄弱地区提供高速互联网接入服务,该卫星的入轨进一步拓展了星链星座的覆盖范围与服务能力。

基本信息
目录编号:
57347
目录名称:
STARLINK-6378
国际标识:
2023-099V
轨道中心:
EARTH
卫星名称:
星链-6378
卫星全名:
星链-6378 (STARLINK-6378 )
卫星状态:
在轨 (已飞行1064 天)
发射日期:
2023-07-16 UTC
国别 :
美国 (US)
星等 :
--
轨道信息
数据来源 国际轨道数据
星历时间: 2026-06-14T18:38:06+0800
8小时前
查看轨道信息
半长轴: 6861.207km
偏心率: 0.0001106
轨道倾角: 43.010°
近地点辐角 276.637°
升交点赤经 69.400°
平近点角 83.435°
近地点: 482.311km
远地点: 483.829km
周期: 94.267分钟
每日圈数: 15.275733
详细信息
固有亮度:
5
最大亮度:
2.5
卫星平台:
Starlink v1.5
覆盖范围:
全球
运营商:
太空探索技术公司
运营商所在国:
美国
制造商(研发单位):
太空探索技术公司
制造商所在国:
美国
使用方式:
暂无
卫星简介
星链(Starlink)计划是由太空探索技术公司(SpaceX)提出的一个巨型低轨卫星互联网星座项目,计划在2019年至2024年间在太空搭建由约1.2万颗卫星组成的“星链”网络,其中1584颗将部署在地球上空550千米处的近地轨道,并从2020年开始工作。该卫星仍在工作。
2D轨道图
3D轨道图
轨道高度分析图
轨道倾角分析图
轨道综合分析图
查看轨道综合分析图